Weather History for Eagle, AK

Change the Weather History Date:

Wednesday, October 3, 2012

  Actual Average (PABN) Record (PABN)
Temperature  
Mean Temperature 41 °F -  
Max Temperature 48 °F 34 °F 50 °F (2003)
Min Temperature 34 °F 23 °F 3 °F (2000)
Degree Days  
Heating Degree Days 24    
Moisture  
Dew Point 26 °F    
Average Humidity 56    
Maximum Humidity 79    
Minimum Humidity 43    
Precipitation  
Precipitation 0.00 in - - ()
Sea Level Pressure  
Sea Level Pressure 30.25 in    
Wind  
Wind Speed 4 mph (SE)    
Max Wind Speed 9 mph    
Max Gust Speed 20 mph    
Visibility 10 miles    
Events      
Averages and records for this station are not official NWS values.
T = Trace of Precipitation, MM = Missing Value Source: NWS Daily Summary

Daily Weather History Graph

Daily Weather History Graph

Search for Another Location

Airport:

Trip Planner

Search our weather history database for the weather conditions in past years. The results will help you decide how hot, cold, wet, or windy it might be!

Date:

Astronomy

Oct. 03, 2012 Rise Set
Actual Time 7:42 AM AKDT 6:43 PM AKDT
Civil Twilight 6:53 AM AKDT 7:31 PM AKDT
Nautical Twilight 5:56 AM AKDT 8:28 PM AKDT
Astronomical Twilight 4:54 AM AKDT 9:29 PM AKDT
Moon 6:55 PM AKDT (10/3) 12:56 PM AKDT (10/3)
Length of Visible Light 12h 38m
Length of Day
11h 00m
Waning Gibbous, 88% of the Moon is Illuminated
Oct 3
Waning Gibbous
Oct 7
Last Quarter
Oct 15
New
Oct 21
First Quarter
Oct 29
Full

Hourly Weather History & Observations

Time (AKDT) Temp. Windchill Dew Point Humidity Pressure Visibility Wind Dir Wind Speed Gust Speed Precip Events Conditions
12:53 AM 37.9 °F - 28.0 °F 68% 30.26 in 10.0 mi Calm Calm - N/A   Overcast
1:53 AM 37.9 °F 35.5 °F 28.0 °F 68% 30.27 in 10.0 mi ENE 3.5 mph - N/A   Overcast
2:53 AM 34.0 °F 31.0 °F 28.0 °F 79% 30.27 in 10.0 mi SSE 3.5 mph - N/A   Overcast
3:53 AM 34.0 °F - 28.0 °F 79% 30.27 in 10.0 mi Calm Calm - N/A   Overcast
4:53 AM 36.0 °F - 28.0 °F 73% 30.27 in 10.0 mi Calm Calm - N/A   Overcast
5:53 AM 39.0 °F 34.8 °F 26.1 °F 60% 30.27 in 10.0 mi South 5.8 mph - N/A   Overcast
6:53 AM 39.0 °F 35.7 °F 26.1 °F 60% 30.27 in 10.0 mi SE 4.6 mph - N/A   Overcast
7:53 AM 39.0 °F 33.4 °F 25.0 °F 57% 30.28 in 10.0 mi SE 8.1 mph - N/A   Overcast
8:53 AM 39.0 °F 34.0 °F 25.0 °F 57% 30.29 in 10.0 mi SE 6.9 mph - N/A   Partly Cloudy
9:53 AM 41.0 °F 36.4 °F 25.0 °F 53% 30.29 in 10.0 mi SE 6.9 mph - N/A   Clear
10:53 AM 44.1 °F 39.0 °F 25.0 °F 47% 30.28 in 10.0 mi SSE 9.2 mph 19.6 mph N/A   Clear
11:53 AM 44.1 °F 39.0 °F 26.1 °F 49% 30.30 in 10.0 mi SE 9.2 mph - N/A   Clear
12:53 PM 46.9 °F - 27.0 °F 46% 30.30 in 10.0 mi SE 9.2 mph - N/A   Clear
1:53 PM 48.0 °F - 27.0 °F 44% 30.29 in 10.0 mi SE 5.8 mph 16.1 mph N/A   Clear
2:53 PM 48.0 °F - 27.0 °F 44% 30.28 in 10.0 mi Variable 6.9 mph - N/A   Clear
3:53 PM 48.0 °F - 27.0 °F 44% 30.25 in 10.0 mi SE 8.1 mph 18.4 mph N/A   Clear
4:53 PM 48.0 °F - 27.0 °F 44% 30.24 in 10.0 mi SSE 6.9 mph - N/A   Clear
5:53 PM 45.0 °F - 27.0 °F 49% 30.23 in 10.0 mi Calm Calm - N/A   Clear
6:53 PM 43.0 °F 41.3 °F 26.1 °F 51% 30.22 in 10.0 mi SE 3.5 mph - N/A   Clear
7:53 PM 43.0 °F 39.5 °F 27.0 °F 53% 30.20 in 10.0 mi SSE 5.8 mph - N/A   Clear
8:53 PM 37.9 °F - 26.1 °F 62% 30.20 in 10.0 mi Calm Calm - N/A   Clear
9:53 PM 35.1 °F - 25.0 °F 67% 30.18 in 10.0 mi Calm Calm - N/A   Clear
10:53 PM 44.1 °F 39.0 °F 24.1 °F 45% 30.16 in 10.0 mi SE 9.2 mph 18.4 mph N/A   Clear
11:53 PM 44.1 °F 39.0 °F 23.0 °F 43% 30.14 in 10.0 mi SSE 9.2 mph 18.4 mph N/A   Clear